FW8987 Weather Reports


time (UTC)temp
F
wind
direction
speed
knots
gust
knots
rain 1hr
in
rain 24hr
in
rain mn
in
humidity
%
barometer
mb
20260901023516 55 201 0.0 0.9 0.00 0.05 0.00 99 1007.0
20260901022532 55 206 0.9 0.9 0.00 0.05 0.00 99 1006.9
20260901021527 55 0.0 0.0 0.00 0.05 0.00 99 1006.7
20260901020542 56 211 0.9 1.7 0.00 0.05 0.00 99 1006.6
20260901015518 55 203 0.0 1.7 0.00 0.05 0.00 99 1006.6
20260901014533 55 202 0.0 0.9 0.00 0.05 0.00 99 1006.5
20260901013528 55 0.0 0.0 0.00 0.05 0.00 98 1006.3
20260901012544 56 0.0 0.0 0.00 0.05 0.00 98 1006.1
20260901011519 56 229 0.9 2.6 0.00 0.05 0.00 98 1006.2
20260901010534 56 219 0.9 2.6 0.00 0.05 0.00 98 1006.1
20260901005550 56 228 1.7 2.6 0.00 0.05 0.00 98 1006.1
20260901004524 56 213 0.9 1.7 0.00 0.05 0.00 98 1006.0
20260901003519 56 224 0.9 2.6 0.00 0.05 0.00 98 1006.0
20260901002535 56 225 0.9 2.6 0.00 0.05 0.00 99 1006.1
20260901001531 56 219 0.9 1.7 0.00 0.05 0.00 99 1005.9
20260901000546 55 0.0 0.0 0.00 0.05 0.00 99 1005.8
20260831235521 55 0.0 0.0 0.00 0.05 0.00 99 1005.9
20260831234516 55 0.0 0.0 0.00 0.05 0.00 99 1005.8
20260831233532 54 0.0 0.0 0.00 0.05 0.00 99 1005.9
20260831232526 54 0.0 0.0 0.00 0.05 0.00 99 1005.8
20260831231521 55 0.0 0.0 0.00 0.05 0.00 99 1005.8
20260831230517 55 0.0 0.0 0.00 0.05 0.00 99 1005.8
20260831225532 53 0.0 0.0 0.00 0.05 0.00 99 1005.7
20260831224527 54 0.0 0.0 0.00 0.05 0.00 99 1005.7
20260831223523 53 0.0 0.0 0.00 0.05 0.00 99 1005.6
20260831222518 53 0.0 0.0 0.00 0.05 0.00 99 1005.7
20260831221533 53 0.0 0.0 0.00 0.05 0.00 99 1005.6
20260831220529 53 0.0 0.0 0.00 0.05 0.00 99 1005.3
20260831215524 54 0.0 0.0 0.00 0.05 0.05 99 1005.4
20260831214540 55 0.0 0.0 0.00 0.05 0.05 99 1005.3
20260831213534 55 0.0 0.0 0.00 0.05 0.05 99 1005.5
20260831212530 54 0.0 0.0 0.00 0.05 0.05 98 1005.3
20260831211526 55 197 0.9 0.9 0.00 0.05 0.05 98 1005.5
20260831210521 55 0.0 0.0 0.00 0.05 0.05 98 1005.5
20260831205516 56 169 0.0 0.9 0.00 0.05 0.05 97 1005.3
20260831204551 56 165 0.0 0.9 0.00 0.05 0.05 97 1005.3
20260831203526 57 0.0 0.0 0.00 0.05 0.05 96 1005.2
20260831202521 58 166 0.0 0.9 0.00 0.05 0.05 94 1005.3
20260831201517 58 165 0.0 0.9 0.00 0.05 0.05 93 1005.4
20260831200532 59 192 0.0 1.7 0.00 0.05 0.05 91 1005.3
20260831195528 60 224 0.9 2.6 0.00 0.05 0.05 91 1005.1
20260831194523 60 220 1.7 3.5 0.00 0.05 0.05 90 1005.2
20260831193518 60 189 0.0 0.9 0.00 0.05 0.05 89 1005.2
20260831192533 60 208 0.9 2.6 0.00 0.05 0.05 89 1005.0
20260831191528 60 198 0.9 3.5 0.00 0.05 0.05 90 1005.1
20260831190523 61 200 0.0 2.6 0.00 0.05 0.05 89 1005.0
20260831185518 61 215 0.9 5.2 0.00 0.05 0.05 89 1005.0
20260831184533 61 203 0.9 1.7 0.00 0.05 0.05 90 1005.0
20260831183548 61 196 0.9 1.7 0.00 0.05 0.05 90 1005.0
20260831182543 61 195 0.9 2.6 0.00 0.05 0.05 90 1004.8
20260831181519 61 202 0.0 1.7 0.00 0.05 0.05 89 1004.8
20260831180555 62 197 0.9 2.6 0.00 0.05 0.05 89 1004.6
20260831175530 62 191 0.0 0.9 0.00 0.05 0.05 88 1004.6
20260831174546 63 191 0.9 1.7 0.00 0.05 0.05 85 1004.4
20260831173520 64 191 0.9 1.7 0.00 0.05 0.05 83 1004.5
20260831172535 64 190 0.9 2.6 0.00 0.05 0.05 83 1004.5
20260831171532 65 193 0.9 2.6 0.00 0.05 0.05 81 1004.5
20260831170526 66 220 0.9 5.2 0.00 0.05 0.05 78 1004.4
20260831165521 67 197 1.7 3.5 0.00 0.05 0.05 77 1004.3
20260831164516 68 209 1.7 5.2 0.00 0.05 0.05 75 1004.3
20260831163531 68 186 0.9 5.2 0.00 0.05 0.05 72 1004.1
20260831162527 69 189 0.9 2.6 0.00 0.05 0.05 71 1003.8
20260831161522 69 189 0.9 5.2 0.00 0.05 0.05 71 1003.9
20260831160522 69 219 2.6 7.0 0.00 0.05 0.05 70 1003.9
20260831155654 69 230 1.7 6.1 0.00 0.05 0.05 70 1003.8
20260831154529 69 217 1.7 5.2 0.00 0.05 0.05 70 1004.0
20260831153524 69 241 3.5 6.1 0.00 0.05 0.05 71 1004.0
20260831152519 69 198 1.7 3.5 0.00 0.05 0.05 71 1004.1
20260831151534 69 205 0.9 3.5 0.00 0.05 0.05 73 1004.1
20260831150529 69 233 3.5 8.7 0.00 0.05 0.05 73 1004.1
20260831145524 70 210 2.6 7.0 0.00 0.05 0.05 72 1004.1
20260831144520 68 196 1.7 5.2 0.00 0.05 0.05 75 1004.2
20260831143555 68 209 1.7 3.5 0.00 0.05 0.05 76 1004.1
20260831142531 67 193 1.7 5.2 0.00 0.05 0.05 76 1004.1
20260831141525 67 199 1.7 6.1 0.00 0.05 0.05 77 1004.1
20260831140520 68 204 2.6 7.8 0.00 0.05 0.05 76 1004.0
20260831135515 68 199 1.7 3.5 0.00 0.05 0.05 76 1004.1
20260831134530 68 225 2.6 7.0 0.00 0.05 0.05 75 1004.1
20260831133646 68 206 2.6 7.0 0.00 0.05 0.05 76 1004.0
20260831132522 69 200 2.6 7.0 0.00 0.05 0.05 74 1004.0
20260831131537 68 210 2.6 6.1 0.00 0.05 0.05 74 1003.8
20260831130533 70 228 3.5 8.7 0.00 0.05 0.05 70 1003.7
20260831125527 69 212 2.6 5.2 0.00 0.05 0.05 74 1003.7
20260831124522 70 202 2.6 5.2 0.00 0.05 0.05 72 1003.7
20260831123518 70 242 3.5 7.0 0.00 0.05 0.05 70 1003.7
20260831122533 70 238 3.5 7.0 0.00 0.05 0.05 70 1003.7
20260831121528 69 225 2.6 6.1 0.00 0.05 0.05 73 1003.9
20260831120543 69 217 2.6 7.8 0.00 0.05 0.05 74 1003.8
20260831115518 69 232 2.6 6.1 0.00 0.05 0.05 75 1003.8
20260831114533 67 205 1.7 7.0 0.00 0.05 0.05 80 1003.8
20260831113528 67 214 2.6 6.1 0.00 0.05 0.05 82 1003.7
20260831112543 69 237 3.5 7.8 0.00 0.06 0.05 79 1003.8
20260831111518 68 225 3.5 9.6 0.00 0.07 0.05 81 1003.6
20260831110559 67 232 2.6 6.1 0.00 0.08 0.05 83 1003.7
20260831105549 69 225 2.6 7.0 0.00 0.10 0.05 82 1003.7
20260831104544 67 209 1.7 3.5 0.00 0.10 0.05 85 1003.6
20260831103520 67 225 2.6 5.2 0.00 0.10 0.05 86 1003.6
20260831102555 65 236 2.6 3.5 0.00 0.10 0.05 88 1003.6
20260831101531 64 207 1.7 2.6 0.00 0.10 0.05 92 1003.7
20260831100530 63 223 1.7 5.2 0.00 0.10 0.05 96 1003.7
20260831095521 63 217 1.7 6.1 0.00 0.10 0.05 94 1003.7
20260831094518 64 230 2.6 6.1 0.00 0.10 0.05 91 1003.5
20260831093532 66 246 2.6 7.0 0.00 0.10 0.05 88 1003.4
20260831092527 66 211 1.7 2.6 0.00 0.10 0.05 88 1003.3
20260831091522 65 234 0.9 3.5 0.00 0.10 0.05 88 1003.4
20260831090519 64 214 1.7 2.6 0.00 0.10 0.05 91 1003.3
20260831085534 64 229 1.7 3.5 0.00 0.10 0.05 93 1003.3
20260831084550 64 209 0.9 1.7 0.00 0.10 0.05 94 1003.4
20260831083546 63 202 0.9 1.7 0.00 0.10 0.05 95 1003.3
20260831082521 63 191 0.0 0.9 0.00 0.10 0.05 94 1003.4
20260831081517 62 188 0.0 0.9 0.00 0.10 0.05 96 1003.3
20260831080533 62 176 0.0 0.9 0.00 0.10 0.05 97 1003.3
20260831075608 61 192 0.9 1.7 0.00 0.10 0.05 99 1003.3
20260831074523 60 192 0.0 0.9 0.00 0.10 0.05 99 1003.2
20260831073518 59 185 0.0 0.9 0.00 0.10 0.05 99 1003.4
20260831072533 59 197 0.9 1.7 0.00 0.10 0.05 99 1003.3
20260831071529 59 201 0.9 1.7 0.00 0.10 0.05 99 1003.2
20260831070545 59 219 0.0 1.7 0.00 0.10 0.05 99 1003.2
20260831065520 59 0.0 0.0 0.00 0.10 0.05 99 1003.1
20260831064555 58 0.0 0.0 0.00 0.10 0.05 99 1003.0
20260831063531 58 0.0 0.0 0.00 0.10 0.05 99 1003.0
20260831062545 57 0.0 0.0 0.00 0.10 0.05 99 1003.1
20260831061520 57 0.0 0.0 0.00 0.10 0.05 99 1003.1
20260831060516 56 0.0 0.0 0.00 0.10 0.05 99 1003.0
20260831055531 56 0.0 0.0 0.00 0.10 0.05 99 1003.0
20260831054547 56 0.0 0.0 0.00 0.10 0.05 99 1002.7
20260831053542 55 0.0 0.0 0.00 0.10 0.05 99 1002.8
20260831052517 55 0.0 0.0 0.01 0.10 0.05 99 1002.7
20260831051532 55 0.0 0.0 0.01 0.10 0.05 99 1002.8
20260831050528 54 0.0 0.0 0.01 0.10 0.05 99 1002.8
20260831045524 54 0.0 0.0 0.01 0.10 0.05 99 1002.8
20260831044519 54 192 0.0 0.9 0.02 0.10 0.05 99 1002.7
20260831043534 54 0.0 0.0 0.02 0.10 0.05 99 1002.7
20260831042530 54 0.0 0.0 0.01 0.09 0.04 99 1002.6
20260831041525 54 0.0 0.0 0.02 0.09 0.04 99 1002.7
20260831040522 54 215 0.9 1.7 0.02 0.09 0.04 99 1002.6
20260831035516 54 0.0 0.0 0.03 0.09 0.04 99 1002.5
20260831034532 54 0.0 0.0 0.02 0.08 0.03 99 1002.6
20260831033526 54 0.0 0.0 0.03 0.08 0.03 99 1002.5
20260831032522 54 0.0 0.0 0.03 0.08 0.03 99 1002.5
20260831031538 55 0.0 0.0 0.02 0.07 0.02 99 1002.5
20260831030533 55 0.0 0.0 0.02 0.07 0.02 99 1002.6
20260831025529 54 0.0 0.0 0.01 0.07 0.01 99 1002.8
20260831024524 54 0.0 0.0 0.01 0.07 0.01 99 1002.6